Hourly Data Report for October 09, 2016

All times are specified in Local Standard Time (LST). Add 1 hour to adjust for Daylight Saving Time where and when it is observed.

KUGLUKTUK A
NUNAVUT

67°49'00.000" N
115°08'38.000" W
22.60 m
2300903
71938
YCO

Download Data

Hourly Data (October 2016)
Hourly Data Report for October 9, 2016
Temp Definition
°C
Dew Point Temp Definition
°C
Rel Hum Definition
%
Wind Dir Definition
10's deg

Wind Spd Definition
km/h
Visibility Definition
km
Stn Press Definition
kPa
Hmdx Definition


Wind Chill Definition


Weather Definition


TIME
00:00 Legend Double Dagger -4.0 -5.4 90 25 13 16.1 102.38   -9 Snow
01:00 Legend Double Dagger -4.8 -6.1 91 27 18 24.1 102.39   -11 Snow
02:00 Legend Double Dagger -5.5 -6.6 92 27 19 24.1 102.39   -12 Mainly Clear
03:00 Legend Double Dagger -5.4 -6.4 93 25 17 24.1 102.39   -11 LegendNANA
04:00 Legend Double Dagger -5.1 -6.4 91 24 18 24.1 102.38   -11 LegendNANA
05:00 Legend Double Dagger -5.9 -7.3 90 24 15 24.1 102.40   -12 Mainly Clear
06:00 Legend Double Dagger -5.8 -7.2 90 25 17 24.1 102.39   -12 LegendNANA
07:00 Legend Double Dagger -5.2 -6.6 90 25 14 24.1 102.42   -11 LegendNANA
08:00 Legend Double Dagger -4.9 -5.9 93 25 17 16.1 102.42   -11 Freezing Drizzle
09:00 Legend Double Dagger -5.4 -6.4 93 24 16 9.7 102.43   -11 Freezing Drizzle,Fog
10:00 Legend Double Dagger -6.0 -7.1 92 24 16 24.1 102.41   -12 LegendNANA
11:00 Legend Double Dagger -4.7 -6.1 90 26 21 24.1 102.41   -11 Mostly Cloudy
12:00 Legend Double Dagger -4.0 -5.6 89 27 23 24.1 102.42   -11 LegendNANA
13:00 Legend Double Dagger -2.6 -4.6 86 27 22 24.1 102.43   -9 LegendNANA
14:00 Legend Double Dagger -2.9 -4.2 91 28 21 4.8 102.43   -9 Freezing Drizzle,Fog
15:00 Legend Double Dagger -2.7 -4.6 87 26 18 16.1 102.43   -8 LegendNANA
16:00 Legend Double Dagger -3.8 -5.5 88 27 14 24.1 102.41   -9 LegendNANA
17:00 Legend Double Dagger -5.7 -7.4 88 25 17 24.1 102.38   -12 Mainly Clear
18:00 Legend Double Dagger -9.2 -10.6 90 21 17 24.1 102.38   -16 LegendNANA
19:00 Legend Double Dagger -10.2 -11.5 90 22 23 24.1 102.36   -19 LegendNANA
20:00 Legend Double Dagger -10.4 -11.9 89 21 18 24.1 102.36   -18 Clear
21:00 Legend Double Dagger -10.8 -12.7 86 22 22 24.1 102.33   -19 LegendNANA
22:00 Legend Double Dagger -11.1 -13.0 86 22 22 24.1 102.32   -20 LegendNANA
23:00 Legend Double Dagger -10.6 -12.7 85 23 23 24.1 102.27   -19 Clear

Notes on Data Quality.

Legend

  • E = Estimated
  • M = Missing
  • NA = Not Available
  • ‡ = Partner data that is not subject to review by the National Climate Archives
Date modified: